Wind_Speed
14 14 13 13 12 12 12 11 10 8 8 7 6 7 7 7 7 7 7 8 9 10 10 10 10 10 11 11 11 11 11 12 12 13 13 13 14 14 14 14 14 14 14 14
16 15 15 14 13 13 12 11 10 9 8 8 8 8 8 8 8 8 8 8 9 9 10 10 11 10 10 11 12 12 12 12 12 13 13 14 14 15 15 15 15 15 15 16
17 16 16 15 15 14 13 12 11 10 9 10 10 9 9 9 9 9 9 9 9 10 11 11 11 11 11 12 12 12 12 13 13 13 13 14 15 15 16 16 17 17 17 18
19 18 18 15 14 15 14 13 12 11 11 11 10 10 10 10 10 10 10 10 11 11 11 12 12 12 12 12 12 12 12 13 13 14 15 15 15 16 17 17 18 19 19 18
21 20 18 16 15 15 15 13 12 12 11 11 11 11 11 11 10 11 11 12 12 12 12 12 12 12 13 13 12 12 13 14 14 15 15 16 16 17 17 17 18 18 18 19
23 22 20 16 16 16 15 14 14 13 12 12 12 11 11 11 11 11 11 12 12 12 12 12 12 12 12 13 13 13 13 14 14 15 15 16 16 17 16 17 17 18 18 19
23 22 20 18 17 16 16 14 14 14 14 13 12 12 12 12 11 12 12 11 12 13 13 13 13 13 13 13 13 13 14 14 14 15 15 16 16 16 16 16 17 18 19 20
24 23 21 20 19 18 17 16 15 15 15 14 13 13 13 13 12 12 12 12 12 12 13 13 13 13 13 13 14 14 14 14 14 15 15 16 16 16 17 17 18 19 20 21
25 24 22 22 21 19 18 18 17 16 15 15 14 14 14 14 13 13 13 13 13 13 13 14 14 14 14 14 14 15 15 15 16 16 16 17 17 17 18 19 20 20 21 21
27 25 25 24 23 21 20 20 18 17 16 16 15 15 16 15 15 15 14 14 14 14 14 14 14 15 15 15 15 16 16 16 16 16 17 17 17 18 19 20 21 21 21 22
28 27 27 25 24 23 23 22 20 18 18 17 17 16 17 17 16 16 15 15 15 15 16 16 16 16 16 17 17 17 17 17 17 17 18 18 19 19 20 21 22 23 22 23
29 27 27 27 25 25 24 23 23 22 20 19 18 18 18 18 18 17 17 17 17 17 17 17 18 18 18 18 18 19 18 18 18 18 19 20 20 21 22 22 23 24 24 24
30 29 28 27 27 26 25 25 25 24 23 21 21 21 20 19 19 19 18 18 18 18 19 19 19 19 19 19 19 20 20 20 20 20 20 21 21 22 22 23 23 24 25 26
31 30 29 29 29 28 27 26 26 26 25 24 23 23 22 22 21 20 20 20 20 20 20 20 21 21 21 21 21 21 21 22 21 21 22 22 23 24 24 24 24 25 26 27
32 32 31 30 30 29 28 27 27 26 26 26 25 24 23 23 22 22 22 22 22 22 22 22 22 22 22 22 22 22 23 23 23 23 24 24 25 25 25 25 26 26 27 29
34 33 33 32 31 30 29 29 29 28 28 28 27 26 25 25 24 24 24 23 23 22 23 23 23 23 23 23 24 24 24 24 24 24 25 25 26 26 27 27 28 28 29 30
34 34 34 33 32 31 30 30 30 30 29 29 29 29 28 27 26 25 25 24 24 24 24 24 24 24 24 24 25 25 26 26 26 26 27 27 27 28 28 29 29 30 30 30
33 34 34 33 33 32 31 31 31 31 30 30 30 29 29 28 27 27 27 26 26 25 25 25 25 26 26 26 27 27 27 28 28 28 28 28 29 29 30 30 30 30 31 31
34 34 34 33 33 32 31 30 30 31 31 31 30 29 28 28 29 29 28 28 27 27 27 27 27 28 28 28 29 29 29 29 30 30 30 30 30 30 31 31 31 31 32 32
34 34 34 33 33 33 32 31 31 31 31 31 31 31 30 30 31 30 30 29 29 29 29 29 29 29 30 30 30 30 30 31 31 31 31 31 31 32 32 33 33 33 33 33
34 34 34 34 34 34 33 32 32 32 31 31 32 32 31 31 31 31 31 31 31 31 30 30 31 31 31 31 31 31 31 32 32 32 32 32 33 33 33 34 35 35 35 36
34 34 35 35 35 35 34 33 33 32 32 32 33 33 32 32 32 32 32 32 32 32 32 32 32 33 33 33 33 33 33 33 33 34 34 33 33 33 34 35 36 37 37 38
35 35 35 35 35 35 34 34 34 33 33 33 33 32 32 32 33 33 33 33 33 33 33 33 34 34 33 33 34 34 34 34 34 34 34 34 34 35 36 37 38 39 39 39
34 34 35 35 36 35 34 34 34 34 34 34 33 32 32 32 32 32 32 33 33 33 34 34 34 34 34 34 34 34 34 34 34 34 35 35 36 37 38 39 39 39 39 40
34 34 35 35 35 35 34 34 34 33 33 33 32 32 32 32 33 33 33 34 34 34 35 35 35 35 35 35 35 34 34 34 34 35 36 37 37 38 39 39 39 40 40 41
35 35 35 35 35 34 34 34 34 34 33 33 32 32 32 33 33 34 35 35 35 36 36 36 36 36 35 35 36 36 35 35 36 36 37 38 38 38 38 39 39 40 40 41
35 35 35 35 35 35 34 34 34 34 34 34 33 33 33 33 34 34 35 35 35 35 35 35 35 35 35 36 36 36 36 36 37 37 38 39 39 39 39 39 39 40 40 41
Wind_Direction
244 245 246 250 252 255 258 262 265 265 262 256 253 250 250 256 258 260 256 246 239 235 234 236 238 237 237 240 245 250 254 253 254 254 257 260 259 259 263 266 269 273 276 279
244 245 246 247 249 252 256 259 260 258 254 252 251 248 247 250 253 256 258 253 242 239 240 244 246 248 247 248 249 252 254 255 258 259 259 261 262 263 265 268 271 275 278 280
243 244 246 245 249 253 256 256 255 254 253 252 252 249 248 250 252 252 255 254 248 244 244 245 247 250 251 253 251 253 255 257 260 262 262 264 265 266 270 273 275 279 281 282
244 244 246 247 250 253 254 253 254 252 250 251 253 250 251 255 255 256 256 255 254 252 252 250 249 251 251 251 252 255 259 261 263 264 266 269 269 272 274 276 278 280 282 284
245 246 248 247 248 251 252 251 252 251 251 252 253 252 254 256 255 256 257 255 252 251 250 251 251 252 251 250 254 259 262 263 266 267 270 272 273 274 277 279 280 282 284 286
243 244 244 243 246 249 251 249 249 250 250 253 253 253 254 254 252 256 258 257 254 252 251 253 252 254 251 253 257 261 264 266 268 268 270 272 275 276 279 281 282 285 286 288
241 243 242 241 244 246 247 248 248 250 252 254 254 252 252 251 252 256 257 258 257 254 252 254 254 254 254 256 259 264 268 270 270 270 271 273 275 279 282 283 284 287 287 288
240 242 241 241 243 244 247 246 245 247 250 251 252 251 251 252 253 256 257 258 259 257 255 257 257 255 255 257 260 265 269 272 273 274 275 275 277 280 282 283 284 286 288 289
241 242 241 240 241 243 244 244 244 245 248 249 249 250 251 253 253 255 257 258 258 257 256 257 256 256 258 260 264 269 270 273 274 275 276 277 279 281 283 284 286 287 288 289
240 240 241 241 241 242 243 243 244 244 247 250 250 249 249 250 250 253 257 257 258 259 259 259 258 259 262 266 269 272 273 274 274 275 277 279 281 283 285 287 288 290 290 290
242 241 241 241 241 242 243 243 244 245 247 250 252 252 253 254 253 254 256 256 257 259 260 260 262 263 266 269 271 271 272 274 275 276 277 278 280 282 286 288 288 289 290 291
243 243 243 240 241 242 243 243 244 245 247 249 252 255 257 257 254 254 256 257 258 261 262 262 264 265 268 269 271 272 273 274 275 276 278 279 280 283 286 288 289 289 290 291
243 242 242 240 239 241 243 243 244 245 247 250 253 255 256 256 256 256 256 259 260 262 264 265 266 268 269 270 272 274 274 275 276 277 279 280 281 284 287 289 290 291 292 293
241 241 241 240 239 239 242 243 244 245 247 250 252 254 257 257 258 258 259 260 260 262 264 266 267 268 270 271 272 274 274 274 275 277 279 280 283 285 287 289 290 292 293 295
239 240 240 239 239 239 241 243 244 244 247 249 251 253 256 256 257 259 260 262 261 262 263 265 267 269 270 272 274 274 274 275 276 277 278 281 284 286 288 289 290 291 294 296
239 240 240 240 240 240 242 243 244 244 245 248 250 252 254 255 257 258 259 260 262 263 264 264 266 268 270 272 273 274 276 277 277 279 280 283 285 287 288 290 291 293 294 295
239 239 241 242 241 241 242 243 244 244 246 249 251 251 253 255 256 257 258 259 262 263 262 263 265 267 270 272 273 274 276 277 278 279 281 283 285 287 288 290 291 293 294 295
239 240 242 244 243 242 242 243 245 246 247 250 251 252 252 254 254 255 256 258 261 261 261 262 265 267 269 272 273 274 274 276 278 280 281 283 286 287 288 290 291 293 294 295
239 240 241 243 242 241 241 243 245 246 247 249 251 252 251 251 253 255 257 258 260 260 261 263 266 268 270 272 273 273 274 276 278 280 281 283 285 287 288 289 291 293 294 295
239 239 240 241 241 241 241 243 245 246 248 250 251 252 251 251 253 256 258 259 259 259 262 264 266 269 270 272 273 274 276 277 278 279 281 283 285 286 287 289 290 291 293 294
239 240 241 240 240 241 241 243 245 247 249 250 251 252 253 253 254 257 258 258 259 260 262 265 267 269 270 271 272 273 275 276 278 280 281 283 284 285 286 288 289 290 292 293
239 240 241 240 241 241 242 244 246 248 250 252 252 252 252 253 255 257 259 259 259 261 263 265 267 268 270 271 272 273 274 276 277 279 280 282 284 285 286 288 289 290 291 292
241 241 242 241 242 242 244 246 248 250 251 252 253 254 254 254 256 257 258 259 260 261 263 265 266 268 270 272 273 274 275 276 277 278 279 281 283 284 287 289 290 290 291 293
242 242 242 242 243 244 246 248 250 250 251 253 253 254 255 256 256 257 258 259 260 262 264 265 266 268 269 271 272 274 275 276 277 278 279 281 283 285 287 288 290 291 292 293
242 242 242 242 243 245 247 249 250 250 250 250 251 252 254 256 257 258 260 261 263 264 265 265 266 267 269 271 272 273 274 276 278 279 281 282 284 286 287 289 290 291 292 293
240 241 241 241 243 245 247 248 249 249 250 250 250 253 256 258 259 261 261 262 264 265 266 266 266 268 269 271 272 273 274 276 278 279 281 283 285 286 288 290 291 291 292 293
241 241 241 241 242 244 245 247 248 249 249 250 253 255 258 260 261 263 263 263 264 265 266 266 267 268 270 272 274 275 275 277 278 280 281 283 284 286 288 290 291 292 293 294
Height
5824 5825 5827 5828 5829 5830 5830 5831 5832 5833 5833 5834 5833 5834 5834 5834 5835 5835 5835 5836 5837 5838 5839 5840 5841 5842 5843 5844 5845 5846 5846 5847 5848 5848 5849 5849 5850 5850 5850 5851 5851 5850 5850 5850
5821 5822 5823 5825 5826 5827 5828 5829 5830 5830 5832 5832 5832 5832 5832 5833 5833 5834 5834 5835 5835 5836 5837 5838 5839 5839 5840 5841 5842 5843 5844 5844 5845 5845 5846 5846 5846 5847 5847 5847 5847 5847 5847 5846
5817 5818 5819 5821 5823 5824 5825 5826 5827 5828 5830 5829 5830 5830 5830 5831 5831 5832 5832 5832 5833 5833 5834 5835 5836 5837 5837 5838 5839 5840 5841 5841 5842 5842 5842 5843 5843 5843 5843 5843 5843 5843 5842 5842
5812 5815 5815 5820 5820 5821 5822 5823 5825 5825 5826 5827 5827 5828 5828 5828 5828 5829 5829 5830 5830 5831 5832 5832 5833 5834 5835 5835 5836 5837 5837 5838 5838 5839 5839 5839 5839 5839 5839 5839 5839 5838 5838 5837
5807 5809 5811 5815 5816 5817 5818 5820 5822 5823 5823 5824 5824 5825 5825 5825 5825 5826 5826 5826 5827 5828 5828 5829 5830 5831 5832 5832 5833 5834 5834 5834 5835 5835 5835 5835 5835 5835 5835 5835 5834 5834 5833 5833
5802 5804 5806 5812 5812 5813 5815 5816 5818 5819 5820 5821 5821 5822 5823 5822 5822 5822 5823 5823 5824 5825 5825 5826 5827 5828 5829 5829 5830 5830 5830 5831 5831 5831 5831 5831 5831 5831 5831 5830 5830 5829 5829 5828
5796 5798 5802 5806 5807 5809 5811 5814 5814 5815 5816 5817 5818 5819 5819 5819 5819 5819 5820 5820 5821 5821 5822 5823 5824 5824 5825 5826 5826 5827 5827 5827 5827 5827 5827 5827 5827 5827 5826 5826 5825 5825 5824 5823
5790 5793 5799 5801 5802 5805 5807 5808 5809 5811 5812 5813 5814 5814 5815 5815 5815 5816 5816 5817 5818 5818 5819 5819 5820 5821 5822 5822 5823 5823 5823 5823 5823 5823 5823 5823 5822 5822 5822 5821 5821 5820 5819 5817
5786 5790 5792 5794 5797 5799 5801 5803 5805 5806 5807 5808 5809 5810 5811 5811 5812 5812 5813 5813 5814 5814 5815 5816 5817 5817 5818 5818 5819 5819 5819 5819 5819 5818 5818 5818 5818 5817 5817 5816 5815 5814 5813 5812
5779 5782 5786 5789 5791 5794 5796 5798 5800 5801 5803 5804 5805 5806 5806 5807 5808 5809 5809 5810 5810 5811 5811 5812 5813 5813 5814 5814 5814 5814 5814 5814 5814 5814 5813 5813 5813 5812 5812 5811 5810 5809 5807 5806
5772 5776 5779 5782 5785 5788 5790 5792 5794 5796 5798 5799 5800 5801 5802 5803 5803 5804 5805 5806 5806 5807 5808 5808 5808 5809 5809 5809 5809 5810 5810 5809 5809 5809 5809 5808 5808 5807 5806 5805 5804 5803 5801 5800
5765 5769 5772 5776 5779 5781 5784 5786 5788 5790 5792 5793 5794 5796 5796 5797 5798 5799 5800 5801 5802 5802 5803 5803 5804 5804 5804 5804 5804 5804 5804 5804 5804 5804 5803 5803 5802 5801 5800 5799 5798 5796 5795 5793
5757 5761 5764 5768 5771 5774 5776 5779 5781 5783 5786 5787 5789 5790 5791 5792 5792 5794 5795 5796 5796 5797 5798 5798 5799 5799 5799 5799 5799 5799 5799 5799 5799 5798 5798 5797 5796 5795 5794 5793 5791 5789 5788 5786
5748 5752 5755 5759 5763 5766 5768 5771 5774 5776 5778 5780 5782 5783 5784 5786 5787 5788 5789 5790 5791 5791 5792 5792 5793 5793 5793 5793 5794 5793 5793 5793 5793 5792 5792 5791 5790 5789 5788 5786 5784 5782 5780 5778
5740 5743 5747 5751 5754 5757 5760 5763 5766 5769 5771 5773 5775 5776 5777 5779 5780 5781 5782 5783 5784 5785 5786 5786 5787 5787 5787 5787 5787 5787 5787 5787 5786 5786 5785 5784 5783 5782 5781 5779 5777 5775 5773 5771
5731 5734 5738 5741 5745 5749 5752 5755 5758 5761 5763 5765 5767 5769 5770 5772 5773 5774 5775 5776 5777 5778 5779 5779 5780 5780 5780 5781 5781 5780 5780 5780 5779 5779 5778 5777 5776 5775 5773 5771 5769 5767 5765 5763
5722 5726 5729 5733 5736 5740 5744 5747 5750 5753 5755 5757 5759 5761 5762 5764 5765 5767 5768 5769 5770 5771 5772 5772 5773 5773 5773 5773 5774 5773 5773 5772 5772 5771 5770 5769 5768 5767 5765 5763 5761 5759 5757 5754
5713 5717 5720 5724 5728 5731 5735 5738 5741 5744 5746 5749 5750 5752 5754 5756 5757 5759 5760 5761 5762 5763 5764 5764 5765 5765 5766 5766 5766 5765 5765 5765 5764 5763 5762 5761 5760 5758 5756 5755 5753 5750 5748 5746
5703 5707 5711 5715 5718 5722 5725 5729 5732 5735 5737 5739 5742 5744 5745 5747 5749 5750 5752 5753 5754 5755 5756 5756 5757 5757 5757 5757 5757 5757 5757 5756 5755 5754 5753 5752 5751 5749 5748 5746 5744 5742 5739 5737
5694 5698 5702 5705 5709 5712 5716 5719 5722 5725 5728 5730 5732 5734 5736 5738 5740 5741 5743 5744 5746 5747 5747 5748 5748 5748 5749 5748 5748 5748 5748 5747 5746 5745 5744 5743 5742 5740 5738 5736 5734 5732 5730 5727
5685 5689 5693 5696 5700 5703 5707 5710 5713 5716 5718 5721 5723 5725 5727 5729 5730 5732 5733 5735 5737 5737 5738 5739 5739 5739 5739 5739 5739 5739 5738 5738 5737 5736 5735 5734 5732 5730 5728 5727 5724 5722 5720 5717
5675 5679 5683 5687 5690 5694 5697 5701 5703 5706 5708 5711 5713 5715 5717 5719 5720 5722 5724 5725 5727 5727 5728 5729 5729 5730 5729 5729 5729 5729 5728 5728 5727 5726 5725 5724 5722 5720 5718 5716 5714 5712 5709 5706
5666 5670 5673 5677 5681 5684 5688 5691 5693 5696 5698 5700 5703 5705 5706 5708 5710 5712 5714 5715 5716 5717 5718 5718 5719 5719 5719 5719 5719 5718 5718 5717 5717 5716 5715 5713 5712 5710 5708 5705 5703 5700 5698 5695
5657 5660 5664 5668 5671 5674 5677 5681 5683 5686 5688 5690 5693 5694 5696 5698 5700 5701 5703 5704 5705 5706 5707 5707 5708 5708 5708 5708 5708 5708 5707 5706 5706 5705 5704 5702 5700 5699 5696 5694 5692 5689 5686 5683
5647 5651 5654 5658 5661 5664 5668 5670 5673 5676 5678 5680 5682 5684 5686 5688 5689 5691 5692 5693 5694 5695 5696 5696 5697 5697 5697 5697 5697 5697 5696 5696 5695 5694 5692 5691 5689 5687 5685 5682 5680 5677 5674 5671
5638 5641 5644 5648 5651 5655 5657 5660 5663 5665 5668 5670 5672 5674 5676 5677 5678 5679 5680 5681 5683 5683 5684 5685 5685 5686 5686 5686 5686 5685 5685 5684 5683 5682 5681 5679 5677 5675 5673 5670 5668 5665 5662 5659
5628 5631 5635 5638 5641 5644 5647 5650 5653 5655 5658 5660 5662 5664 5665 5666 5667 5668 5669 5670 5671 5671 5672 5673 5673 5674 5674 5674 5674 5674 5673 5672 5671 5670 5669 5667 5665 5663 5661 5658 5656 5653 5650 5646